PDA5501 UKLL-UKBB

Flight info

Callsign PDA5501
Flight time 0h 54m
Altitude 29000
Route ADBAN N983 SORON M986 SLV
Aircraft A321/M-SDE3FGHIJ4RWY/LB1

Departure

Time 2026-05-03 23:20
Airport Lviv International Airport (UKLL)

Arrival

Time 2026-05-04 00:14
Airport Boryspil International Airport (UKBB)
Time Latitude Longitude Altitude Speed Heading
2026-05-03 23:00 49.81289 23.95872 1085 ft 0 kts 46°
2026-05-03 23:11 49.81287 23.95868 1085 ft 2 kts 42°
2026-05-03 23:11 49.81275 23.95853 1085 ft 2 kts 46°
2026-05-03 23:11 49.81265 23.95836 1085 ft 2 kts 47°
2026-05-03 23:11 49.81255 23.95819 1085 ft 2 kts 46°
2026-05-03 23:12 49.81245 23.95801 1085 ft 2 kts 66°
2026-05-03 23:12 49.81244 23.95778 1085 ft 2 kts 109°
2026-05-03 23:12 49.81248 23.95764 1085 ft 0 kts 135°
2026-05-03 23:12 49.81254 23.95757 1085 ft 0 kts 137°
2026-05-03 23:13 49.81253 23.95757 1085 ft 0 kts 137°
2026-05-03 23:14 49.81253 23.95758 1085 ft 0 kts 137°
2026-05-03 23:15 49.81244 23.95771 1085 ft 3 kts 137°
2026-05-03 23:15 49.81223 23.95803 1085 ft 5 kts 135°
2026-05-03 23:15 49.81191 23.95853 1085 ft 8 kts 135°
2026-05-03 23:15 49.81142 23.95927 1085 ft 11 kts 136°
2026-05-03 23:16 49.81076 23.96016 1085 ft 13 kts 155°
2026-05-03 23:16 49.80970 23.96033 1085 ft 16 kts 180°
2026-05-03 23:16 49.80846 23.96048 1085 ft 19 kts 154°
2026-05-03 23:16 49.80735 23.96199 1085 ft 23 kts 136°
2026-05-03 23:17 49.80611 23.96385 1085 ft 26 kts 136°
2026-05-03 23:17 49.80475 23.96590 1085 ft 28 kts 136°
2026-05-03 23:17 49.80325 23.96815 1085 ft 30 kts 136°
2026-05-03 23:17 49.80178 23.97036 1085 ft 25 kts 136°
2026-05-03 23:18 49.80050 23.97229 1085 ft 25 kts 135°
2026-05-03 23:18 49.79986 23.97402 1085 ft 10 kts 134°
2026-05-03 23:18 49.79987 23.97364 1085 ft 7 kts 302°
2026-05-03 23:18 49.80015 23.97285 1085 ft 9 kts 310°
2026-05-03 23:19 49.80038 23.97249 1085 ft 0 kts 315°
2026-05-03 23:19 49.80054 23.97225 1085 ft 18 kts 315°
2026-05-03 23:19 49.80319 23.96822 1085 ft 84 kts 314°
2026-05-03 23:19 49.80874 23.95985 1085 ft 138 kts 316°
2026-05-03 23:20 49.81689 23.94800 1151 ft 174 kts 315°
2026-05-03 23:20 49.82604 23.93528 1530 ft 184 kts 315°
2026-05-03 23:20 49.83601 23.92100 1790 ft 206 kts 315°
2026-05-03 23:20 49.84718 23.90493 1968 ft 236 kts 315°
2026-05-03 23:21 49.85973 23.88681 2381 ft 255 kts 315°
2026-05-03 23:21 49.87295 23.86775 3061 ft 263 kts 315°
2026-05-03 23:21 49.88630 23.84852 3844 ft 265 kts 315°
2026-05-03 23:21 49.90065 23.83037 4599 ft 271 kts 330°
2026-05-03 23:22 49.93744 23.83064 6039 ft 282 kts 30°
2026-05-03 23:22 49.95159 23.85153 6753 ft 284 kts 58°
2026-05-03 23:22 49.96145 23.87779 7478 ft 286 kts 62°
2026-05-03 23:23 49.97085 23.90533 8173 ft 289 kts 67°
2026-05-03 23:23 49.97596 23.93533 8849 ft 290 kts 88°
2026-05-03 23:23 49.97401 23.96610 9528 ft 290 kts 109°
2026-05-03 23:23 49.96585 23.99474 10204 ft 291 kts 119°
2026-05-03 23:24 49.95751 24.02409 10583 ft 306 kts 108°
2026-05-03 23:24 49.95234 24.05704 10879 ft 322 kts 103°
2026-05-03 23:24 49.94801 24.09189 11157 ft 338 kts 101°
2026-05-03 23:24 49.94394 24.12856 11472 ft 351 kts 100°
2026-05-03 23:25 49.93995 24.16605 12024 ft 356 kts 100°
2026-05-03 23:25 49.93589 24.20443 12650 ft 358 kts 101°
2026-05-03 23:25 49.93095 24.24251 13234 ft 361 kts 104°
2026-05-03 23:25 49.92438 24.28034 13801 ft 364 kts 107°
2026-05-03 23:26 49.91725 24.31791 14355 ft 367 kts 108°
2026-05-03 23:26 49.90989 24.35629 14903 ft 370 kts 108°
2026-05-03 23:26 49.90252 24.39462 15436 ft 373 kts 108°
2026-05-03 23:26 49.89509 24.43331 15959 ft 376 kts 108°
2026-05-03 23:27 49.88758 24.47240 16471 ft 379 kts 108°
2026-05-03 23:27 49.87987 24.51251 16982 ft 382 kts 108°
2026-05-03 23:27 49.87217 24.55252 17479 ft 385 kts 108°
2026-05-03 23:27 49.86423 24.59369 17977 ft 388 kts 108°
2026-05-03 23:28 49.85632 24.63459 18459 ft 390 kts 108°
2026-05-03 23:28 49.84832 24.67591 18932 ft 393 kts 108°
2026-05-03 23:28 49.84038 24.71678 19390 ft 395 kts 108°
2026-05-03 23:28 49.83237 24.75791 19835 ft 398 kts 108°
2026-05-03 23:29 49.82434 24.79907 20262 ft 401 kts 108°
2026-05-03 23:29 49.81625 24.84046 20682 ft 403 kts 108°
2026-05-03 23:29 49.80917 24.88276 21087 ft 407 kts 103°
2026-05-03 23:29 49.80487 24.92618 21482 ft 411 kts 97°
2026-05-03 23:30 49.80344 24.97051 21873 ft 415 kts 92°
2026-05-03 23:30 49.80329 25.01502 22268 ft 417 kts 91°
2026-05-03 23:30 49.80336 25.06023 22671 ft 419 kts 91°
2026-05-03 23:30 49.80339 25.10493 23069 ft 421 kts 91°
2026-05-03 23:31 49.80334 25.15030 23461 ft 422 kts 91°
2026-05-03 23:31 49.80321 25.19584 23845 ft 424 kts 91°
2026-05-03 23:31 49.80304 25.24183 24220 ft 426 kts 91°
2026-05-03 23:31 49.80284 25.28764 24570 ft 428 kts 91°
2026-05-03 23:32 49.80262 25.33365 24900 ft 431 kts 91°
2026-05-03 23:32 49.80238 25.37986 25227 ft 433 kts 91°
2026-05-03 23:32 49.80212 25.42664 25551 ft 435 kts 91°
2026-05-03 23:32 49.80184 25.47351 25864 ft 437 kts 91°
2026-05-03 23:33 49.80152 25.52074 26174 ft 440 kts 91°
2026-05-03 23:33 49.80118 25.56813 26475 ft 442 kts 91°
2026-05-03 23:33 49.80081 25.61527 26763 ft 444 kts 91°
2026-05-03 23:33 49.80041 25.66323 27055 ft 446 kts 92°
2026-05-03 23:34 49.80000 25.71147 27341 ft 448 kts 92°
2026-05-03 23:34 49.79960 25.75994 27620 ft 450 kts 92°
2026-05-03 23:34 49.79919 25.80782 27885 ft 452 kts 92°
2026-05-03 23:34 49.79874 25.85665 28154 ft 454 kts 92°
2026-05-03 23:35 49.79825 25.90573 28418 ft 456 kts 91°
2026-05-03 23:35 49.79774 25.95518 28674 ft 458 kts 92°
2026-05-03 23:35 49.79720 26.00446 28916 ft 460 kts 92°
2026-05-03 23:35 49.79663 26.05473 29065 ft 464 kts 92°
2026-05-03 23:36 49.79540 26.15587 29075 ft 478 kts 92°
2026-05-03 23:36 49.79407 26.25912 29076 ft 489 kts 92°
2026-05-03 23:37 49.79261 26.36515 29076 ft 497 kts 92°
2026-05-03 23:37 49.79095 26.47007 29027 ft 470 kts 92°
2026-05-03 23:38 49.78942 26.56961 29066 ft 462 kts 92°
2026-05-03 23:38 49.78780 26.66885 29073 ft 461 kts 92°
2026-05-03 23:39 49.78610 26.76825 29074 ft 461 kts 92°
2026-05-03 23:39 49.78429 26.86726 29074 ft 461 kts 92°
2026-05-03 23:40 49.78241 26.96638 29072 ft 463 kts 93°
2026-05-03 23:40 49.78044 27.06564 29074 ft 466 kts 93°
2026-05-03 23:41 49.77834 27.16589 29073 ft 468 kts 93°
2026-05-03 23:41 49.77616 27.26656 29074 ft 468 kts 93°
2026-05-03 23:42 49.77389 27.36735 29074 ft 469 kts 93°
2026-05-03 23:42 49.77153 27.46820 29075 ft 469 kts 93°
2026-05-03 23:43 49.76908 27.56863 29074 ft 468 kts 93°
2026-05-03 23:43 49.76652 27.66924 29073 ft 468 kts 94°
2026-05-03 23:44 49.76396 27.76983 29074 ft 469 kts 92°
2026-05-03 23:44 49.77014 27.87014 29074 ft 471 kts 78°
2026-05-03 23:45 49.79063 27.96602 29080 ft 471 kts 69°
2026-05-03 23:45 49.81515 28.05981 29086 ft 471 kts 68°
2026-05-03 23:46 49.83952 28.15380 29093 ft 471 kts 68°
2026-05-03 23:46 49.86359 28.24807 29100 ft 471 kts 69°
2026-05-03 23:47 49.88741 28.34209 29103 ft 471 kts 69°
2026-05-03 23:47 49.91130 28.43688 29103 ft 471 kts 69°
2026-05-03 23:48 49.93503 28.53145 29102 ft 471 kts 69°
2026-05-03 23:48 49.95872 28.62631 29103 ft 471 kts 69°
2026-05-03 23:49 49.98230 28.72110 29102 ft 471 kts 69°
2026-05-03 23:49 50.00570 28.81562 29104 ft 471 kts 69°
2026-05-03 23:50 50.02519 28.89502 29100 ft 471 kts 69°
2026-05-03 23:50 50.05233 29.00589 29084 ft 469 kts 68°
2026-05-03 23:51 50.07510 29.10012 29059 ft 465 kts 68°
2026-05-03 23:51 50.09787 29.19485 29039 ft 465 kts 68°
2026-05-03 23:52 50.12033 29.28881 29029 ft 465 kts 68°
2026-05-03 23:52 50.14276 29.38315 29024 ft 465 kts 68°
2026-05-03 23:53 50.15402 29.43072 28823 ft 464 kts 68°
2026-05-03 23:53 50.16503 29.47732 28329 ft 461 kts 68°
2026-05-03 23:53 50.17607 29.52414 27886 ft 455 kts 68°
2026-05-03 23:53 50.18739 29.56946 27404 ft 451 kts 65°
2026-05-03 23:54 50.20032 29.61425 26901 ft 446 kts 62°
2026-05-03 23:54 50.21345 29.65725 26369 ft 442 kts 63°
2026-05-03 23:54 50.22666 29.70015 25843 ft 438 kts 63°
2026-05-03 23:54 50.23985 29.74303 25317 ft 433 kts 63°
2026-05-03 23:55 50.25264 29.78476 24805 ft 429 kts 63°
2026-05-03 23:55 50.26541 29.82653 24290 ft 425 kts 63°
2026-05-03 23:55 50.27809 29.86813 23759 ft 422 kts 63°
2026-05-03 23:55 50.29068 29.90954 23203 ft 419 kts 63°
2026-05-03 23:56 50.30308 29.95039 22642 ft 416 kts 63°
2026-05-03 23:56 50.31539 29.99101 22080 ft 413 kts 63°
2026-05-03 23:56 50.32746 30.03093 21526 ft 411 kts 63°
2026-05-03 23:56 50.33968 30.07142 20967 ft 408 kts 63°
2026-05-03 23:57 50.35164 30.11112 20416 ft 405 kts 63°
2026-05-03 23:57 50.36362 30.15096 19866 ft 402 kts 63°
2026-05-03 23:57 50.37546 30.19045 19320 ft 400 kts 63°
2026-05-03 23:57 50.38722 30.22969 18777 ft 397 kts 63°
2026-05-03 23:58 50.39887 30.26859 18241 ft 394 kts 63°
2026-05-03 23:58 50.41051 30.30730 17716 ft 391 kts 63°
2026-05-03 23:58 50.42217 30.34536 17261 ft 386 kts 63°
2026-05-03 23:58 50.43373 30.38301 16825 ft 382 kts 63°
2026-05-03 23:59 50.44520 30.42046 16345 ft 379 kts 63°
2026-05-03 23:59 50.45647 30.45735 15853 ft 376 kts 63°
2026-05-03 23:59 50.46762 30.49394 15354 ft 374 kts 63°
2026-05-03 23:59 50.47883 30.53082 14925 ft 370 kts 63°
2026-05-04 00:00 50.48976 30.56688 14709 ft 358 kts 63°
2026-05-04 00:00 50.50019 30.60133 14557 ft 346 kts 63°
2026-05-04 00:00 50.51038 30.63510 14387 ft 335 kts 63°
2026-05-04 00:00 50.52028 30.66790 14217 ft 325 kts 64°
2026-05-04 00:01 50.52973 30.69924 14055 ft 314 kts 64°
2026-05-04 00:01 50.53889 30.72966 13892 ft 305 kts 64°
2026-05-04 00:01 50.54870 30.75903 13664 ft 296 kts 51°
2026-05-04 00:01 50.56415 30.77852 13389 ft 287 kts 20°
2026-05-04 00:02 50.58337 30.78378 13136 ft 279 kts
2026-05-04 00:02 50.60274 30.78328 12852 ft 275 kts 358°
2026-05-04 00:02 50.62154 30.78272 12576 ft 271 kts 360°
2026-05-04 00:02 50.64037 30.78302 12298 ft 266 kts
2026-05-04 00:03 50.65860 30.78391 12025 ft 262 kts
2026-05-04 00:03 50.67670 30.78509 11715 ft 260 kts
2026-05-04 00:03 50.69459 30.78638 11381 ft 259 kts
2026-05-04 00:03 50.71262 30.78773 11043 ft 258 kts
2026-05-04 00:04 50.73031 30.78907 10712 ft 256 kts
2026-05-04 00:04 50.74799 30.79040 10379 ft 255 kts
2026-05-04 00:04 50.76563 30.79173 10047 ft 254 kts
2026-05-04 00:04 50.78320 30.79306 9715 ft 252 kts
2026-05-04 00:05 50.80045 30.79753 9347 ft 253 kts 24°
2026-05-04 00:05 50.81352 30.81555 8960 ft 255 kts 60°
2026-05-04 00:05 50.81810 30.84245 8607 ft 256 kts 90°
2026-05-04 00:05 50.81719 30.87042 8293 ft 255 kts 94°
2026-05-04 00:06 50.81465 30.89810 7930 ft 255 kts 111°
2026-05-04 00:06 50.80426 30.92018 7446 ft 259 kts 148°
2026-05-04 00:06 50.78746 30.92847 7043 ft 255 kts 183°
2026-05-04 00:06 50.77009 30.92557 6742 ft 252 kts 187°
2026-05-04 00:07 50.75252 30.92336 6435 ft 251 kts 185°
2026-05-04 00:07 50.73531 30.92200 6139 ft 249 kts 184°
2026-05-04 00:07 50.71814 30.92079 5845 ft 246 kts 184°
2026-05-04 00:07 50.70117 30.91959 5554 ft 244 kts 184°
2026-05-04 00:08 50.68416 30.91835 5262 ft 242 kts 184°
2026-05-04 00:08 50.66747 30.91711 4968 ft 240 kts 185°
2026-05-04 00:08 50.65085 30.91587 4676 ft 239 kts 185°
2026-05-04 00:08 50.63425 30.91462 4389 ft 237 kts 185°
2026-05-04 00:09 50.61792 30.91357 4106 ft 235 kts 182°
2026-05-04 00:09 50.60177 30.91452 3816 ft 234 kts 178°
2026-05-04 00:09 50.58562 30.91629 3527 ft 232 kts 178°
2026-05-04 00:09 50.56949 30.91814 3243 ft 231 kts 178°
2026-05-04 00:10 50.55351 30.91988 2979 ft 228 kts 179°
2026-05-04 00:10 50.53783 30.91988 2918 ft 228 kts 184°
2026-05-04 00:10 50.52196 30.91870 2911 ft 223 kts 185°
2026-05-04 00:10 50.50695 30.91740 2905 ft 213 kts 185°
2026-05-04 00:11 50.49215 30.91617 2892 ft 213 kts 185°
2026-05-04 00:11 50.47745 30.91503 2697 ft 212 kts 185°
2026-05-04 00:11 50.46320 30.91400 2506 ft 197 kts 185°
2026-05-04 00:11 50.44988 30.91305 2245 ft 184 kts 185°
2026-05-04 00:12 50.43770 30.91218 1974 ft 168 kts 185°
2026-05-04 00:12 50.42653 30.91137 1716 ft 152 kts 185°
2026-05-04 00:12 50.41646 30.91063 1502 ft 142 kts 185°
2026-05-04 00:12 50.40660 30.90988 1329 ft 141 kts 185°
2026-05-04 00:13 50.39687 30.90916 1156 ft 140 kts 185°
2026-05-04 00:13 50.38707 30.90844 974 ft 140 kts 185°
2026-05-04 00:13 50.37744 30.90775 790 ft 140 kts 185°
2026-05-04 00:13 50.36771 30.90700 587 ft 139 kts 185°
2026-05-04 00:14 50.35821 30.90632 435 ft 134 kts 185°
2026-05-04 00:14 50.35007 30.90562 426 ft 93 kts 182°
2026-05-04 00:14 50.34534 30.90531 426 ft 43 kts 181°
2026-05-04 00:14 50.34326 30.90506 426 ft 24 kts 191°
2026-05-04 00:15 50.34175 30.90423 426 ft 22 kts 209°
2026-05-04 00:15 50.34050 30.90302 426 ft 20 kts 212°
2026-05-04 00:15 50.33931 30.90184 426 ft 19 kts 209°
2026-05-04 00:15 50.33805 30.90152 426 ft 18 kts 183°
2026-05-04 00:16 50.33680 30.90141 426 ft 17 kts 185°
2026-05-04 00:16 50.33561 30.90134 426 ft 15 kts 184°
2026-05-04 00:16 50.33498 30.90055 426 ft 12 kts 258°
2026-05-04 00:16 50.33498 30.89917 426 ft 10 kts 272°
2026-05-04 00:17 50.33502 30.89816 426 ft 7 kts 287°
2026-05-04 00:17 50.33543 30.89790 426 ft 5 kts
2026-05-04 00:17 50.33555 30.89790 426 ft 0 kts
2026-05-04 00:17 50.33562 30.89791 426 ft 0 kts
2026-05-04 00:18 50.33565 30.89791 426 ft 0 kts